#timestamp,LO_Frequency,Hit,StdDev 
1677722415.6,286047000.6,N
1677722435.5,286047002.3,N
1677722455.3,286047004.0,N
1677722475.1,286047003.8,N
1677722495.9,286047006.0,Y
1677722515.7,286047005.7,P
1677722535.5,286047004.9,N
1677722555.4,286047007.6,P
1677722575.2,286047011.9,Y
1677722595.1,286046997.5,P
1677722596.0,286046997.5,N
1677722615.8,286046997.2,N
1677722635.6,286046995.6,N
1677722655.5,286046997.3,N
1677722675.3,286046997.7,N
1677722695.1,286046997.1,N
1677722715.9,286046997.4,N
1677722735.7,286046997.0,N
1677722755.6,286047000.7,N
1677722775.4,286046999.9,N
1677722795.2,286046999.5,N
1677722815.1,286046996.8,N
1677722816.0,286046996.8,N
1677722835.8,286046997.4,N
1677722855.6,286046996.8,N
1677722875.5,286046997.2,N
1677722895.3,286046998.9,N
1677722915.2,286046999.3,N
1677722935.9,286046997.8,N
1677722955.7,286046996.6,N
1677722975.6,286046997.4,N
1677722995.4,286046997.7,N
1677723015.2,286046995.3,N
1677723035.1,286046994.0,Y
1677723036.0,286046994.0,P
1677723055.8,286046995.6,N
1677723075.7,286046996.9,N
1677723095.5,286046996.5,N
1677723115.3,286046999.6,N
1677723135.2,286047005.7,Y
1677723155.0,286047012.1,P
1677723155.9,286047012.1,N
1677723175.8,286047009.8,N
1677723195.6,286047008.6,N
1677723215.4,286047006.4,N
1677723235.3,286047005.3,N
1677723255.1,286047002.0,N
1677723256.0,286047002.0,N
1677723275.8,286046998.2,N
1677723295.7,286046997.8,N
1677723315.5,286046995.0,N
1677723335.3,286046995.2,N
1677723355.2,286046995.4,N
1677723375.0,286046999.4,N
1677723375.9,286046999.4,N
1677723395.8,286046998.8,N
1677723415.6,286046996.7,N
1677723435.4,286046999.9,N
1677723455.3,286047001.5,N
1677723475.1,286047005.6,N
1677723495.8,286047004.0,N
1677723515.7,286046999.9,N
1677723535.5,286046998.3,N
1677723555.4,286046998.1,N
1677723575.2,286046998.6,N
1677723595.0,286046995.0,N
1677723595.9,286046995.0,N
1677723615.8,286046997.7,N
1677723635.6,286046997.6,N
1677723655.4,286046999.6,N
1677723675.3,286046997.7,N
1677723695.1,286046995.8,N
1677723715.9,286046995.7,N
1677723735.7,286046996.0,N
1677723755.5,286046994.5,N
1677723775.4,286046994.0,N
1677723795.2,286046994.4,N
1677723815.0,286046993.3,N
1677723815.9,286046993.3,N
1677723835.8,286046994.0,N
1677723855.6,286046992.1,N
1677723875.5,286046996.0,N
1677723895.3,286046996.5,N
1677723915.1,286046997.6,N
1677723935.9,286046996.1,N
1677723955.7,286046993.3,N
1677723975.5,286046995.3,N
1677723995.4,286046996.3,N
1677724015.2,286046996.0,N
1677724035.1,286046994.1,N
1677724036.0,286046994.1,N
1677724055.8,286046991.9,Y
1677724075.6,286046998.1,P
1677724095.5,286046998.4,N
1677724115.3,286047003.6,P
1677724135.1,286047002.2,N
1677724155.9,286047001.9,N
1677724175.7,286047000.9,N
1677724195.6,286047002.5,N
1677724215.4,286046999.0,N
1677724235.2,286046998.1,N
1677724255.1,286046997.1,N
1677724256.0,286046997.1,N
1677724275.8,286046998.9,N
1677724295.6,286046997.2,N
1677724315.5,286046997.8,N
1677724335.3,286046995.0,N
1677724355.2,286047000.0,N
1677724375.9,286047000.5,N
1677724395.7,286047002.4,N
1677724415.6,286047003.9,N
1677724435.4,286047005.3,N
1677724455.2,286047007.2,N
1677724475.1,286047001.3,N
1677724476.0,286047001.3,N
1677724495.8,286047001.6,N
1677724515.6,286047002.3,N
1677724535.5,286047001.0,N
1677724555.3,286046999.3,N
1677724575.2,286046999.2,N
1677724595.9,286046998.5,N
1677724615.7,286046999.0,N
1677724635.6,286046997.7,N
1677724655.4,286046997.8,N
1677724675.2,286046995.9,N
1677724695.1,286046994.4,N
1677724696.0,286046994.4,N
1677724715.8,286046994.1,N
1677724735.7,286046993.7,N
1677724755.5,286046997.8,N
1677724775.3,286046999.4,N
1677724795.2,286046996.5,N
1677724815.0,286046999.3,N
1677724815.9,286046999.3,N
1677724835.7,286046997.5,N
1677724855.6,286046996.1,N
1677724875.4,286046995.5,N
1677724895.3,286046997.9,N
1677724915.1,286046999.2,N
1677724916.0,286046999.2,N
1677724935.8,286046997.2,N
1677724955.7,286046995.9,N
1677724975.5,286046997.6,N
1677724995.3,286046998.0,N
1677725015.2,286046997.4,N
1677725035.0,286046997.8,N
1677725035.9,286046997.8,N
1677725055.8,286046997.8,N
1677725075.6,286046996.7,N
1677725095.4,286046998.4,N
1677725115.3,286046998.5,N
1677725135.1,286046996.7,N
1677725155.8,286046997.4,N
1677725175.7,286046999.2,N
1677725195.5,286046997.1,N
1677725215.4,286046995.0,Y
1677725235.2,286046998.4,P
1677725255.0,286047001.2,N
1677725255.9,286047001.2,N
1677725275.8,286046996.9,N
1677725295.6,286046996.9,N
1677725315.4,286046997.0,N
1677725335.3,286046997.1,N
1677725355.1,286046996.8,N
1677725375.9,286047000.4,N
1677725395.7,286047000.5,N
1677725415.5,286046999.9,N
1677725435.4,286046999.4,N
1677725455.2,286046997.2,N
1677725475.0,286046998.6,N
1677725475.9,286046998.6,N
1677725495.8,286046999.5,N
1677725515.6,286046994.9,Y
1677725535.5,286046999.3,P
1677725555.3,286046997.2,P
1677725575.1,286046997.4,N
1677725595.9,286046997.1,Y
1677725615.7,286046998.9,P
1677725635.5,286046996.5,P
1677725655.4,286046999.0,N
1677725675.2,286046999.3,N
1677725695.1,286046999.1,N
1677725696.0,286046999.1,N
1677725715.8,286046999.4,N
1677725735.6,286046996.9,Y
1677725755.5,286047000.4,P
1677725775.3,286047002.4,N
1677725795.1,286047002.3,N
1677725815.9,286047001.3,N
1677725835.7,286047001.6,N
1677725855.6,286047004.1,Y
1677725875.4,286047001.5,P
1677725895.2,286047000.1,N
1677725915.1,286047001.2,N
1677725916.0,286047001.2,N
1677725935.8,286047000.4,N
1677725955.6,286047000.0,N
1677725975.5,286046999.2,N
1677725995.3,286047000.6,N
